QPF
0.00 0.00 0.00 0.00 0.00 0.01 0.00 0.00 0.00 0.00 0.00 0.00 0.00 0.00 0.00 0.00 0.00 0.00 0.00 0.00 0.00 0.00 0.00 0.00 0.00 0.00 0.00 0.00 0.00 0.00 0.00 0.00 0.00 0.00 0.00 0.00 0.00 0.00 0.00 0.00 0.00 0.00 0.01
0.00 0.00 0.00 0.00 0.00 0.00 0.00 0.00 0.00 0.00 0.00 0.00 0.00 0.00 0.00 0.00 0.00 0.00 0.00 0.00 0.00 0.00 0.00 0.00 0.00 0.00 0.00 0.00 0.00 0.00 0.00 0.00 0.00 0.00 0.00 0.00 0.00 0.00 0.00 0.00 0.00 0.00 0.00
0.00 0.00 0.00 0.00 0.00 0.00 0.00 0.00 0.00 0.00 0.00 0.00 0.00 0.00 0.00 0.00 0.00 0.00 0.00 0.00 0.00 0.00 0.00 0.00 0.00 0.00 0.00 0.00 0.00 0.00 0.00 0.00 0.00 0.00 0.00 0.00 0.00 0.00 0.00 0.00 0.00 0.00 0.00
0.00 0.00 0.00 0.01 0.00 0.00 0.00 0.00 0.00 0.00 0.00 0.00 0.00 0.00 0.00 0.00 0.00 0.00 0.00 0.00 0.00 0.00 0.00 0.00 0.00 0.00 0.00 0.00 0.00 0.00 0.00 0.00 0.00 0.00 0.00 0.00 0.00 0.00 0.01 0.01 0.01 0.01 0.00
0.00 0.00 0.00 0.00 0.00 0.00 0.00 0.00 0.00 0.00 0.00 0.00 0.00 0.00 0.00 0.00 0.00 0.00 0.00 0.00 0.00 0.00 0.00 0.00 0.00 0.00 0.00 0.00 0.00 0.00 0.00 0.00 0.00 0.00 0.00 0.00 0.00 0.00 0.00 0.00 0.01 0.01 0.03
0.00 0.00 0.00 0.00 0.00 0.00 0.00 0.00 0.00 0.00 0.00 0.00 0.00 0.00 0.00 0.00 0.00 0.00 0.00 0.00 0.00 0.00 0.00 0.00 0.00 0.00 0.00 0.00 0.00 0.00 0.00 0.00 0.00 0.00 0.00 0.00 0.00 0.00 0.00 0.00 0.00 0.00 0.00
0.00 0.00 0.00 0.00 0.00 0.00 0.00 0.00 0.00 0.00 0.00 0.00 0.00 0.00 0.00 0.00 0.00 0.00 0.00 0.00 0.00 0.00 0.00 0.00 0.00 0.00 0.00 0.00 0.00 0.00 0.00 0.00 0.00 0.00 0.00 0.00 0.00 0.00 0.00 0.00 0.00 0.00 0.00
0.00 0.00 0.00 0.00 0.00 0.00 0.00 0.00 0.00 0.00 0.00 0.00 0.00 0.00 0.00 0.00 0.00 0.00 0.00 0.00 0.00 0.00 0.00 0.00 0.00 0.00 0.00 0.00 0.00 0.00 0.00 0.00 0.00 0.00 0.00 0.00 0.00 0.00 0.00 0.00 0.00 0.00 0.00
0.00 0.00 0.00 0.00 0.00 0.00 0.00 0.00 0.00 0.00 0.00 0.00 0.00 0.00 0.00 0.00 0.00 0.00 0.00 0.00 0.00 0.00 0.00 0.00 0.00 0.00 0.00 0.00 0.00 0.00 0.00 0.00 0.00 0.00 0.00 0.00 0.00 0.00 0.00 0.00 0.00 0.00 0.00
0.00 0.00 0.00 0.00 0.00 0.00 0.00 0.00 0.00 0.00 0.00 0.00 0.00 0.00 0.00 0.00 0.00 0.00 0.00 0.00 0.00 0.00 0.00 0.00 0.00 0.00 0.00 0.00 0.00 0.00 0.00 0.00 0.00 0.00 0.00 0.00 0.00 0.00 0.00 0.00 0.00 0.00 0.00
0.00 0.00 0.00 0.00 0.00 0.00 0.00 0.00 0.00 0.00 0.00 0.00 0.00 0.00 0.00 0.00 0.00 0.00 0.00 0.00 0.00 0.00 0.00 0.00 0.00 0.00 0.00 0.00 0.00 0.00 0.00 0.00 0.00 0.00 0.00 0.00 0.00 0.00 0.00 0.00 0.00 0.00 0.00
0.00 0.00 0.00 0.00 0.00 0.00 0.00 0.00 0.00 0.00 0.00 0.00 0.00 0.00 0.00 0.00 0.00 0.00 0.00 0.00 0.00 0.00 0.00 0.00 0.00 0.00 0.00 0.00 0.00 0.00 0.00 0.00 0.00 0.00 0.00 0.00 0.00 0.00 0.00 0.00 0.00 0.00 0.00
0.00 0.00 0.00 0.00 0.00 0.00 0.00 0.00 0.00 0.00 0.00 0.00 0.00 0.00 0.00 0.00 0.00 0.00 0.00 0.00 0.00 0.00 0.00 0.00 0.00 0.00 0.00 0.00 0.00 0.00 0.00 0.00 0.00 0.00 0.00 0.00 0.00 0.00 0.00 0.00 0.00 0.00 0.00
0.00 0.00 0.00 0.00 0.00 0.00 0.00 0.00 0.00 0.00 0.00 0.00 0.00 0.00 0.00 0.00 0.00 0.00 0.00 0.00 0.00 0.00 0.00 0.00 0.00 0.00 0.00 0.00 0.00 0.00 0.00 0.00 0.00 0.00 0.00 0.00 0.00 0.00 0.00 0.00 0.00 0.00 0.00
0.00 0.00 0.00 0.00 0.00 0.00 0.00 0.00 0.00 0.00 0.00 0.00 0.00 0.00 0.00 0.00 0.00 0.00 0.00 0.00 0.00 0.00 0.00 0.00 0.00 0.00 0.00 0.00 0.00 0.00 0.00 0.00 0.00 0.00 0.00 0.00 0.00 0.00 0.00 0.00 0.00 0.00 0.00
0.00 0.00 0.00 0.00 0.00 0.00 0.00 0.00 0.00 0.00 0.00 0.00 0.00 0.00 0.00 0.00 0.00 0.00 0.00 0.00 0.00 0.00 0.00 0.00 0.00 0.00 0.00 0.00 0.00 0.00 0.00 0.00 0.00 0.00 0.00 0.00 0.00 0.00 0.00 0.00 0.00 0.00 0.00
0.00 0.00 0.00 0.00 0.00 0.00 0.00 0.00 0.00 0.00 0.00 0.00 0.00 0.00 0.00 0.00 0.00 0.00 0.00 0.00 0.00 0.00 0.00 0.00 0.00 0.00 0.00 0.00 0.00 0.00 0.00 0.00 0.00 0.00 0.00 0.00 0.00 0.00 0.00 0.00 0.00 0.00 0.00
0.00 0.00 0.00 0.00 0.00 0.00 0.00 0.00 0.00 0.00 0.00 0.00 0.00 0.00 0.00 0.00 0.00 0.00 0.00 0.00 0.00 0.00 0.00 0.00 0.00 0.00 0.00 0.00 0.00 0.00 0.00 0.00 0.00 0.00 0.00 0.00 0.00 0.00 0.00 0.00 0.00 0.00 0.00
0.00 0.00 0.00 0.00 0.00 0.00 0.00 0.00 0.00 0.00 0.00 0.00 0.00 0.00 0.00 0.00 0.00 0.00 0.00 0.00 0.00 0.00 0.00 0.00 0.00 0.00 0.00 0.00 0.00 0.00 0.00 0.00 0.00 0.00 0.00 0.00 0.00 0.00 0.00 0.00 0.00 0.00 0.00
0.00 0.00 0.00 0.00 0.00 0.00 0.00 0.00 0.00 0.00 0.00 0.00 0.00 0.00 0.00 0.00 0.00 0.00 0.00 0.00 0.00 0.00 0.00 0.00 0.00 0.00 0.00 0.00 0.00 0.00 0.00 0.00 0.00 0.00 0.00 0.00 0.00 0.00 0.00 0.00 0.00 0.00 0.00
0.00 0.00 0.00 0.00 0.00 0.00 0.00 0.00 0.00 0.00 0.00 0.00 0.00 0.00 0.00 0.00 0.00 0.00 0.00 0.00 0.00 0.00 0.00 0.00 0.00 0.00 0.00 0.00 0.00 0.00 0.00 0.00 0.00 0.00 0.00 0.00 0.00 0.00 0.00 0.00 0.00 0.00 0.00
0.00 0.00 0.00 0.00 0.00 0.00 0.00 0.00 0.00 0.00 0.00 0.00 0.00 0.00 0.00 0.00 0.00 0.00 0.00 0.00 0.00 0.00 0.00 0.00 0.00 0.00 0.00 0.00 0.00 0.00 0.00 0.00 0.00 0.00 0.00 0.00 0.00 0.00 0.00 0.00 0.00 0.00 0.00
0.00 0.00 0.00 0.00 0.00 0.00 0.00 0.00 0.00 0.00 0.00 0.00 0.00 0.00 0.00 0.00 0.00 0.00 0.00 0.00 0.00 0.00 0.00 0.00 0.00 0.00 0.00 0.00 0.00 0.00 0.00 0.00 0.00 0.00 0.00 0.00 0.00 0.00 0.00 0.00 0.00 0.00 0.00
0.00 0.00 0.00 0.00 0.00 0.00 0.00 0.00 0.00 0.00 0.00 0.00 0.00 0.00 0.00 0.00 0.00 0.00 0.00 0.00 0.00 0.00 0.00 0.00 0.00 0.00 0.00 0.00 0.00 0.00 0.00 0.00 0.00 0.00 0.00 0.00 0.00 0.00 0.00 0.00 0.00 0.00 0.00
0.00 0.00 0.00 0.00 0.00 0.00 0.00 0.00 0.00 0.00 0.00 0.00 0.00 0.00 0.00 0.00 0.00 0.00 0.00 0.00 0.00 0.00 0.00 0.00 0.00 0.00 0.00 0.00 0.00 0.00 0.00 0.00 0.00 0.00 0.00 0.00 0.00 0.00 0.00 0.00 0.00 0.00 0.00
0.00 0.00 0.00 0.00 0.00 0.00 0.00 0.00 0.00 0.00 0.00 0.00 0.00 0.00 0.00 0.00 0.00 0.00 0.00 0.00 0.00 0.00 0.00 0.00 0.00 0.00 0.00 0.00 0.00 0.00 0.00 0.00 0.00 0.00 0.00 0.00 0.00 0.00 0.00 0.00 0.00 0.00 0.00
MSLP
1016.28 1016.11 1016.37 1016.62 1016.71 1016.79 1017.04 1017.25 1017.38 1017.50 1017.59 1017.67 1017.74 1017.82 1017.87 1017.88 1017.85 1017.83 1017.79 1017.77 1017.71 1017.60 1017.50 1017.43 1017.34 1017.26 1017.17 1017.07 1016.96 1016.87 1016.79 1016.68 1016.57 1016.45 1016.36 1016.19 1016.01 1015.90 1015.76 1015.76 1015.71 1015.68 1015.58
1015.56 1016.02 1016.33 1016.56 1016.67 1016.84 1017.18 1017.44 1017.60 1017.69 1017.79 1017.85 1017.85 1017.92 1017.97 1018.02 1018.02 1018.04 1018.04 1017.99 1017.95 1017.86 1017.76 1017.68 1017.64 1017.60 1017.50 1017.41 1017.27 1017.13 1016.99 1016.90 1016.81 1016.68 1016.49 1016.16 1016.01 1015.85 1015.80 1015.78 1015.79 1015.73 1015.59
1015.69 1016.05 1016.32 1016.48 1016.67 1017.00 1017.31 1017.61 1017.79 1017.90 1017.96 1018.01 1018.03 1018.09 1018.13 1018.17 1018.20 1018.20 1018.20 1018.22 1018.16 1018.07 1018.01 1017.95 1017.88 1017.84 1017.78 1017.67 1017.53 1017.36 1017.21 1017.12 1017.03 1016.92 1016.71 1016.47 1016.06 1015.70 1015.72 1015.85 1015.83 1015.74 1015.74
1015.52 1016.01 1016.30 1016.48 1016.80 1017.13 1017.43 1017.70 1017.94 1018.08 1018.13 1018.15 1018.20 1018.26 1018.30 1018.34 1018.37 1018.37 1018.38 1018.34 1018.31 1018.28 1018.20 1018.15 1018.08 1018.03 1017.95 1017.88 1017.73 1017.50 1017.36 1017.28 1017.18 1017.10 1017.05 1016.68 1016.22 1015.83 1015.90 1015.96 1015.91 1015.85 1015.78
1015.65 1016.06 1016.31 1016.56 1016.91 1017.24 1017.57 1017.87 1018.06 1018.24 1018.33 1018.35 1018.41 1018.47 1018.47 1018.52 1018.53 1018.55 1018.62 1018.65 1018.59 1018.52 1018.44 1018.37 1018.31 1018.26 1018.19 1018.07 1017.86 1017.65 1017.52 1017.43 1017.40 1017.44 1017.29 1016.99 1016.60 1016.17 1016.12 1016.08 1016.05 1016.00 1015.95
1015.69 1016.10 1016.43 1016.73 1017.05 1017.36 1017.70 1018.02 1018.19 1018.33 1018.47 1018.56 1018.62 1018.63 1018.65 1018.68 1018.74 1018.82 1018.84 1018.88 1018.87 1018.76 1018.64 1018.52 1018.42 1018.33 1018.23 1018.11 1017.97 1017.83 1017.74 1017.60 1017.54 1017.60 1017.47 1017.22 1016.84 1016.32 1016.17 1016.17 1016.12 1016.05 1016.00
1015.81 1016.20 1016.55 1016.87 1017.20 1017.45 1017.76 1018.08 1018.32 1018.46 1018.62 1018.74 1018.79 1018.79 1018.87 1018.94 1018.99 1019.00 1019.04 1019.00 1018.94 1018.87 1018.77 1018.64 1018.53 1018.37 1018.29 1018.13 1018.01 1017.89 1017.82 1017.72 1017.71 1017.72 1017.54 1017.31 1017.01 1016.46 1016.35 1016.29 1016.24 1016.13 1016.00
1015.83 1016.27 1016.63 1016.98 1017.28 1017.51 1017.74 1018.12 1018.40 1018.60 1018.79 1018.90 1019.00 1019.00 1019.03 1019.06 1019.17 1019.19 1019.16 1019.09 1019.00 1018.93 1018.89 1018.77 1018.62 1018.44 1018.29 1018.12 1017.95 1017.79 1017.76 1017.67 1017.67 1017.67 1017.52 1017.32 1016.98 1016.58 1016.48 1016.46 1016.35 1016.19 1015.99
1015.91 1016.35 1016.83 1017.07 1017.40 1017.58 1017.82 1018.12 1018.45 1018.70 1018.91 1019.04 1019.16 1019.18 1019.26 1019.26 1019.28 1019.30 1019.30 1019.17 1019.06 1019.03 1018.96 1018.85 1018.64 1018.49 1018.25 1018.15 1017.96 1017.71 1017.71 1017.67 1017.78 1017.66 1017.40 1017.33 1016.93 1016.66 1016.58 1016.55 1016.44 1016.23 1016.05
1016.25 1016.50 1016.96 1017.23 1017.51 1017.75 1017.97 1018.21 1018.50 1018.77 1018.97 1019.14 1019.25 1019.35 1019.43 1019.44 1019.38 1019.40 1019.46 1019.31 1019.20 1019.13 1018.99 1018.92 1018.77 1018.51 1018.33 1018.30 1018.11 1017.89 1017.69 1017.73 1017.83 1017.61 1017.43 1017.32 1016.84 1016.65 1016.59 1016.58 1016.50 1016.35 1016.11
1016.57 1016.72 1016.98 1017.33 1017.65 1017.86 1018.12 1018.34 1018.57 1018.77 1018.99 1019.20 1019.35 1019.41 1019.44 1019.52 1019.53 1019.56 1019.48 1019.40 1019.34 1019.22 1019.10 1018.92 1018.84 1018.77 1018.74 1018.56 1018.30 1018.08 1017.94 1017.87 1017.86 1017.74 1017.57 1017.14 1016.81 1016.63 1016.58 1016.50 1016.42 1016.33 1016.14
1016.52 1016.80 1016.90 1017.26 1017.68 1017.93 1018.04 1018.46 1018.75 1018.91 1019.15 1019.35 1019.43 1019.46 1019.52 1019.60 1019.71 1019.59 1019.54 1019.44 1019.46 1019.40 1019.32 1019.16 1019.06 1019.02 1018.97 1018.86 1018.70 1018.43 1018.22 1018.04 1017.95 1017.85 1017.68 1017.28 1016.92 1016.71 1016.55 1016.44 1016.34 1016.19 1016.03
1015.95 1016.48 1016.80 1017.07 1017.47 1017.83 1018.06 1018.61 1018.93 1019.02 1019.27 1019.47 1019.49 1019.54 1019.57 1019.72 1019.76 1019.80 1019.84 1019.83 1019.83 1019.72 1019.68 1019.55 1019.48 1019.36 1019.24 1019.11 1018.90 1018.65 1018.38 1018.15 1018.06 1017.93 1017.72 1017.41 1017.17 1016.89 1016.53 1016.31 1016.24 1016.07 1015.92
1015.77 1016.05 1016.53 1016.89 1017.32 1017.80 1018.16 1018.51 1018.79 1019.08 1019.36 1019.55 1019.54 1019.52 1019.67 1019.88 1019.96 1020.11 1020.17 1020.00 1020.00 1019.99 1019.94 1019.90 1019.84 1019.59 1019.38 1019.17 1019.04 1018.73 1018.51 1018.28 1018.12 1018.05 1017.84 1017.61 1017.46 1017.10 1016.68 1016.46 1016.39 1016.32 1016.17
1015.49 1015.88 1016.35 1016.89 1017.22 1017.64 1018.08 1018.48 1018.76 1019.02 1019.26 1019.40 1019.50 1019.58 1019.67 1019.91 1020.08 1020.11 1020.24 1020.20 1020.13 1020.08 1020.08 1020.07 1019.96 1019.89 1019.66 1019.45 1019.23 1018.93 1018.65 1018.41 1018.19 1018.20 1018.05 1017.79 1017.67 1017.40 1016.99 1016.82 1016.75 1016.62 1016.43
1015.22 1015.82 1016.30 1016.70 1016.98 1017.40 1017.95 1018.39 1018.73 1019.00 1019.21 1019.42 1019.60 1019.64 1019.70 1019.89 1020.05 1020.16 1020.31 1020.33 1020.23 1020.20 1020.14 1020.16 1020.17 1020.04 1019.99 1019.70 1019.54 1019.17 1018.89 1018.61 1018.33 1018.32 1018.27 1018.12 1017.91 1017.70 1017.37 1017.11 1016.95 1016.81 1016.58
1015.03 1015.64 1016.20 1016.52 1016.86 1017.31 1017.76 1018.22 1018.65 1018.93 1019.13 1019.41 1019.52 1019.60 1019.73 1019.81 1019.97 1020.16 1020.40 1020.53 1020.37 1020.24 1020.19 1020.16 1020.10 1020.00 1020.01 1019.74 1019.81 1019.39 1019.00 1018.85 1018.66 1018.62 1018.44 1018.36 1018.25 1018.06 1017.77 1017.48 1017.29 1017.06 1016.80
1014.90 1015.61 1016.18 1016.51 1016.88 1017.45 1017.88 1018.26 1018.64 1018.92 1019.15 1019.33 1019.52 1019.65 1019.75 1019.82 1019.91 1020.20 1020.47 1020.63 1020.47 1020.30 1020.28 1020.37 1020.49 1020.23 1020.23 1020.09 1019.91 1019.67 1019.31 1019.02 1018.88 1018.87 1018.69 1018.65 1018.48 1018.39 1018.15 1017.83 1017.59 1017.41 1017.19
1014.43 1015.26 1016.11 1016.54 1017.04 1017.56 1017.93 1018.38 1018.74 1019.00 1019.19 1019.43 1019.64 1019.77 1019.80 1019.81 1019.94 1020.21 1020.48 1020.60 1020.59 1020.51 1020.46 1020.58 1020.56 1020.52 1020.59 1020.27 1019.83 1019.66 1019.51 1019.32 1019.09 1018.96 1019.00 1018.89 1018.71 1018.59 1018.46 1018.17 1017.95 1017.73 1017.47
1014.29 1015.02 1015.83 1016.50 1017.05 1017.62 1018.15 1018.67 1019.06 1019.29 1019.46 1019.59 1019.74 1019.83 1019.86 1019.91 1020.04 1020.28 1020.41 1020.52 1020.60 1020.68 1020.71 1020.63 1020.68 1020.60 1020.69 1020.63 1020.11 1019.75 1019.52 1019.44 1019.25 1019.21 1019.25 1019.02 1018.92 1018.76 1018.63 1018.47 1018.33 1018.11 1017.74
1014.58 1015.32 1015.97 1016.53 1017.07 1017.56 1018.34 1019.04 1019.48 1019.72 1019.78 1019.88 1019.87 1019.85 1019.93 1020.00 1020.09 1020.30 1020.46 1020.60 1020.68 1020.89 1020.92 1020.90 1020.84 1020.95 1020.89 1020.67 1020.51 1020.15 1019.85 1019.62 1019.59 1019.49 1019.39 1019.32 1019.14 1019.03 1018.85 1018.65 1018.48 1018.29 1018.04
1014.51 1015.30 1016.03 1016.41 1016.96 1017.45 1018.00 1018.66 1019.08 1019.48 1019.79 1019.84 1019.91 1019.96 1019.99 1020.06 1020.13 1020.32 1020.51 1020.64 1020.69 1020.94 1021.07 1021.06 1021.13 1021.31 1021.34 1021.12 1021.35 1021.36 1020.92 1020.26 1019.84 1019.68 1019.63 1019.65 1019.60 1019.33 1019.05 1018.78 1018.52 1018.31 1018.15
1014.78 1015.28 1015.87 1016.34 1016.79 1017.36 1017.92 1018.58 1019.20 1019.56 1019.88 1020.14 1020.15 1020.15 1020.11 1020.13 1020.22 1020.35 1020.49 1020.68 1020.82 1020.95 1021.13 1021.17 1021.18 1021.32 1021.64 1021.52 1021.43 1021.58 1021.52 1021.46 1021.03 1020.08 1019.82 1019.83 1019.71 1019.57 1019.32 1019.03 1018.63 1018.37 1018.20
1014.85 1015.40 1015.80 1016.26 1016.79 1017.39 1017.91 1018.50 1019.03 1019.41 1019.95 1019.99 1020.00 1020.11 1020.17 1020.15 1020.26 1020.34 1020.49 1020.70 1020.84 1021.03 1021.21 1021.20 1021.21 1021.45 1021.64 1021.90 1021.70 1021.55 1021.60 1021.62 1021.63 1021.21 1020.36 1020.02 1019.81 1019.61 1019.43 1019.13 1018.88 1018.55 1018.32
1014.98 1015.44 1015.88 1016.36 1016.92 1017.40 1017.92 1018.40 1018.97 1019.49 1019.70 1019.73 1019.93 1020.13 1020.27 1020.28 1020.31 1020.42 1020.52 1020.65 1020.81 1021.04 1021.17 1021.23 1021.35 1021.49 1021.66 1021.85 1021.95 1021.97 1021.86 1021.81 1021.81 1021.91 1021.60 1020.84 1020.13 1019.64 1019.35 1019.18 1018.88 1018.71 1018.45
1015.35 1015.80 1016.23 1016.64 1017.10 1017.51 1017.97 1018.42 1018.82 1019.33 1019.63 1019.84 1020.08 1020.31 1020.34 1020.34 1020.45 1020.45 1020.50 1020.69 1020.80 1020.99 1021.12 1021.19 1021.28 1021.49 1021.66 1021.80 1021.91 1022.00 1022.10 1022.15 1022.07 1022.05 1022.05 1021.56 1021.15 1020.12 1019.39 1019.04 1018.85 1018.72 1018.56
Thickness
5744 5745 5742 5741 5741 5741 5739 5737 5736 5734 5732 5729 5726 5724 5721 5719 5718 5716 5714 5713 5712 5711 5711 5710 5710 5710 5709 5709 5708 5708 5707 5707 5706 5707 5706 5707 5707 5707 5707 5706 5705 5705 5705
5750 5745 5743 5741 5741 5740 5738 5735 5733 5731 5729 5727 5725 5721 5719 5717 5715 5713 5711 5710 5709 5708 5707 5706 5706 5705 5704 5704 5704 5703 5703 5702 5702 5702 5702 5704 5704 5703 5703 5702 5701 5701 5702
5749 5745 5743 5742 5740 5739 5736 5733 5730 5728 5726 5724 5721 5719 5717 5714 5712 5710 5709 5707 5706 5705 5704 5702 5702 5700 5699 5698 5698 5698 5697 5696 5696 5696 5697 5698 5699 5699 5698 5697 5697 5697 5696
5748 5745 5743 5741 5739 5736 5734 5731 5728 5725 5723 5721 5718 5716 5714 5711 5709 5707 5705 5704 5703 5702 5701 5700 5698 5697 5696 5694 5693 5693 5693 5692 5691 5690 5690 5691 5691 5692 5689 5690 5690 5689 5689
5746 5743 5742 5740 5737 5734 5731 5728 5725 5722 5719 5718 5716 5713 5711 5709 5706 5704 5701 5699 5698 5697 5697 5696 5695 5693 5692 5691 5690 5689 5688 5687 5685 5684 5683 5683 5683 5683 5682 5682 5682 5681 5681
5745 5742 5739 5737 5735 5733 5729 5725 5723 5720 5717 5715 5713 5711 5708 5706 5703 5700 5698 5695 5693 5693 5692 5692 5691 5689 5688 5687 5685 5684 5682 5681 5679 5678 5675 5674 5674 5675 5675 5675 5674 5675 5675
5743 5740 5737 5735 5733 5731 5727 5723 5720 5718 5715 5712 5709 5708 5705 5702 5699 5696 5694 5692 5690 5689 5689 5688 5687 5685 5684 5682 5680 5678 5675 5673 5671 5669 5667 5665 5665 5665 5665 5665 5665 5666 5668
5741 5737 5735 5732 5730 5729 5726 5722 5719 5716 5712 5709 5706 5704 5701 5698 5695 5693 5690 5689 5688 5686 5685 5684 5682 5681 5679 5677 5674 5672 5668 5665 5663 5661 5658 5656 5655 5655 5655 5655 5657 5658 5661
5737 5735 5732 5731 5728 5727 5725 5721 5716 5713 5710 5706 5703 5701 5698 5696 5693 5690 5687 5686 5685 5683 5682 5680 5679 5676 5674 5671 5668 5665 5660 5657 5656 5653 5650 5647 5646 5645 5645 5646 5649 5651 5654
5732 5732 5730 5728 5726 5724 5722 5718 5714 5711 5708 5704 5701 5698 5695 5693 5690 5688 5685 5684 5682 5680 5678 5675 5673 5670 5667 5664 5661 5658 5656 5654 5651 5650 5647 5645 5643 5641 5640 5640 5642 5645 5648
5728 5728 5727 5725 5723 5722 5719 5716 5712 5709 5706 5702 5699 5695 5694 5691 5688 5685 5682 5680 5677 5675 5673 5670 5667 5662 5658 5656 5654 5652 5650 5649 5648 5646 5644 5642 5642 5640 5638 5638 5638 5640 5643
5724 5724 5725 5723 5720 5718 5716 5713 5710 5706 5703 5699 5696 5694 5691 5687 5684 5681 5679 5677 5674 5671 5668 5665 5660 5656 5652 5650 5648 5646 5644 5644 5643 5642 5639 5638 5637 5637 5636 5635 5635 5637 5639
5725 5723 5722 5721 5718 5716 5714 5709 5706 5703 5699 5695 5693 5690 5688 5685 5682 5679 5675 5673 5669 5666 5663 5658 5654 5651 5647 5644 5642 5642 5640 5640 5639 5637 5636 5634 5632 5633 5634 5633 5632 5634 5635
5722 5722 5720 5719 5716 5712 5709 5705 5703 5700 5695 5692 5689 5687 5685 5681 5678 5673 5670 5667 5664 5660 5657 5652 5649 5646 5643 5640 5638 5637 5636 5636 5635 5633 5632 5630 5628 5628 5630 5630 5629 5629 5629
5720 5720 5717 5714 5713 5710 5707 5704 5700 5696 5692 5689 5685 5682 5680 5677 5673 5669 5665 5662 5659 5656 5652 5647 5644 5640 5638 5636 5633 5632 5632 5632 5632 5629 5628 5626 5624 5624 5626 5626 5625 5624 5625
5718 5715 5714 5712 5710 5707 5704 5700 5697 5693 5689 5685 5681 5678 5675 5672 5669 5665 5660 5657 5654 5650 5647 5643 5639 5636 5632 5631 5628 5628 5627 5628 5628 5626 5625 5623 5621 5620 5621 5622 5621 5621 5622
5713 5710 5709 5708 5706 5703 5699 5696 5691 5687 5683 5679 5676 5673 5670 5667 5663 5659 5654 5650 5648 5646 5643 5639 5636 5633 5630 5627 5624 5624 5624 5624 5623 5622 5622 5620 5618 5617 5616 5617 5616 5617 5618
5708 5705 5703 5702 5700 5697 5693 5690 5685 5681 5677 5674 5670 5667 5664 5661 5658 5653 5648 5644 5642 5640 5638 5634 5631 5629 5625 5621 5619 5620 5620 5619 5618 5617 5617 5614 5613 5612 5612 5611 5611 5611 5612
5707 5703 5698 5696 5693 5689 5686 5682 5678 5674 5671 5667 5664 5661 5658 5655 5651 5647 5642 5639 5636 5634 5632 5628 5626 5623 5619 5617 5618 5616 5616 5615 5614 5612 5611 5609 5608 5607 5607 5606 5606 5606 5606
5705 5700 5695 5691 5687 5683 5679 5674 5670 5666 5663 5660 5657 5654 5651 5648 5644 5641 5637 5634 5630 5628 5625 5623 5620 5618 5614 5611 5614 5614 5612 5611 5609 5608 5605 5604 5603 5603 5602 5602 5601 5600 5600
5696 5692 5688 5684 5680 5677 5671 5665 5660 5658 5654 5651 5649 5647 5643 5640 5637 5634 5631 5628 5625 5621 5619 5616 5614 5610 5608 5607 5607 5607 5607 5607 5605 5603 5601 5600 5599 5598 5598 5598 5597 5595 5595
5691 5686 5680 5678 5674 5671 5667 5661 5657 5652 5647 5645 5642 5639 5636 5633 5631 5628 5625 5621 5618 5614 5611 5609 5606 5602 5600 5598 5595 5591 5591 5596 5598 5598 5596 5594 5592 5592 5592 5592 5593 5591 5590
5682 5678 5675 5672 5669 5665 5661 5654 5648 5644 5640 5636 5634 5631 5629 5626 5624 5621 5617 5614 5611 5608 5604 5601 5598 5596 5592 5590 5589 5586 5583 5581 5578 5587 5588 5586 5585 5585 5585 5585 5586 5585 5584
5672 5670 5668 5665 5661 5657 5653 5647 5642 5637 5632 5630 5628 5625 5622 5619 5616 5613 5609 5606 5603 5599 5596 5593 5590 5587 5584 5580 5580 5580 5577 5574 5571 5571 5577 5578 5577 5578 5578 5577 5577 5577 5576
5663 5661 5659 5656 5652 5648 5644 5639 5633 5629 5625 5623 5620 5617 5614 5611 5608 5604 5601 5598 5595 5591 5587 5584 5582 5579 5575 5572 5569 5568 5567 5564 5562 5559 5559 5563 5569 5570 5570 5570 5570 5569 5568
5652 5650 5648 5646 5643 5639 5635 5630 5626 5622 5618 5615 5611 5607 5604 5602 5599 5596 5593 5589 5586 5582 5579 5576 5574 5571 5567 5564 5561 5558 5556 5555 5554 5551 5547 5548 5549 5558 5562 5563 5562 5560 5559